When you browse on this site, cookies collect data to enhance your experience and personalize the content and advertising you see.
Visit our Privacy Policy to learn more. By continuing to use the site, you agree to this use of cookies and data.
  • In Denmark
  • List of Countries
  • For 7 days
  • Water Temperature
  • Satellite Maps
  • Weather Map
  • Weather Widgets
  • user-avatar
    Login

    Hourly Weather Jastrzebik

    Today, 19 February, Tuesday

    Time Temperature Precipitation Wind Pressure Humidity
    00:00 +1°C° 0 mm 2 mps 715 mmHg 85%
    01:00 +1°C° 0 mm 2 mps 715 mmHg 84%
    02:00 +1°C° 0 mm 2 mps 715 mmHg 85%
    03:00 -1°C° 0 mm 2 mps 715 mmHg 85%
    04:00 -1°C° 0 mm 2 mps 714 mmHg 85%
    05:00 -1°C° 0 mm 2 mps 714 mmHg 86%
    06:00 -1°C° 0 mm 2 mps 714 mmHg 86%
    07:00 -1°C° 0 mm 2 mps 714 mmHg 87%
    08:00 +2°C° 0 mm 2 mps 714 mmHg 83%
    09:00 +4°C° 0 mm 2 mps 714 mmHg 79%
    10:00 +5°C° 0 mm 2 mps 714 mmHg 74%
    11:00 +7°C° 0 mm 2 mps 714 mmHg 71%
    12:00 +8°C° 0 mm 2 mps 714 mmHg 69%
    13:00 +9°C° 0 mm 2 mps 714 mmHg 66%
    14:00 +8°C° 0 mm 2 mps 714 mmHg 69%
    15:00 +8°C° 0 mm 2 mps 713 mmHg 73%
    16:00 +8°C° 0 mm 1 mps 713 mmHg 77%
    17:00 +6°C° 0 mm 1 mps 713 mmHg 81%
    18:00 +5°C° 0 mm 1 mps 713 mmHg 85%
    19:00 +3°C° 0 mm 1 mps 713 mmHg 90%
    20:00 +3°C° 0 mm 1 mps 713 mmHg 89%
    21:00 +2°C° 0 mm 1 mps 713 mmHg 88%
    22:00 +2°C° 0 mm 1 mps 713 mmHg 87%
    23:00 +2°C° 0 mm 1 mps 713 mmHg 86%

    Tomorrow, 20 February, Wednesday

    Time Temperature Precipitation Wind Pressure Humidity
    00:00 +2°C° 0 mm 1 mps 713 mmHg 85%
    01:00 +3°C° 0 mm 1 mps 713 mmHg 84%
    02:00 +3°C° 0.4 mm 1 mps 713 mmHg 87%
    03:00 +3°C° 0.4 mm 1 mps 713 mmHg 89%
    04:00 +3°C° 0.4 mm 1 mps 713 mmHg 91%
    05:00 +3°C° 0 mm 1 mps 713 mmHg 92%
    06:00 +1°C° 0 mm 2 mps 713 mmHg 92%
    07:00 +1°C° 0 mm 2 mps 713 mmHg 93%
    08:00 +2°C° 0 mm 2 mps 713 mmHg 87%
    09:00 +2°C° 0 mm 3 mps 714 mmHg 81%
    10:00 +4°C° 0 mm 4 mps 714 mmHg 75%
    11:00 +4°C° 0.1 mm 4 mps 715 mmHg 73%
    12:00 +4°C° 0.1 mm 4 mps 715 mmHg 71%
    13:00 +4°C° 0.1 mm 4 mps 715 mmHg 69%
    14:00 +4°C° 0 mm 4 mps 715 mmHg 70%
    15:00 +3°C° 0 mm 4 mps 715 mmHg 72%
    16:00 +3°C° 0 mm 3 mps 715 mmHg 74%
    17:00 +2°C° 0 mm 3 mps 715 mmHg 78%
    18:00 +1°C° 0 mm 3 mps 716 mmHg 82%
    19:00 +2°C° 0 mm 2 mps 716 mmHg 86%
    20:00 +2°C° 0 mm 2 mps 716 mmHg 86%
    21:00 +2°C° 0 mm 2 mps 717 mmHg 87%
    22:00 +2°C° 0 mm 2 mps 717 mmHg 87%
    23:00 +1°C° 0 mm 2 mps 717 mmHg 88%

    Day after tomorrow, 21 February, Thursday

    Time Temperature Precipitation Wind Pressure Humidity
    00:00 +1°C° 0 mm 2 mps 717 mmHg 88%
    01:00 +1°C° 0 mm 2 mps 717 mmHg 89%
    02:00 +1°C° 0 mm 2 mps 717 mmHg 89%
    03:00 +2°C° 0 mm 1 mps 717 mmHg 89%
    04:00 +1°C° 0 mm 1 mps 717 mmHg 89%
    05:00 +2°C° 0 mm 1 mps 717 mmHg 88%
    06:00 +2°C° 0 mm 1 mps 717 mmHg 87%
    07:00 +2°C° 0 mm 1 mps 717 mmHg 86%
    08:00 +3°C° 0.1 mm 1 mps 717 mmHg 83%
    09:00 +4°C° 0.1 mm 1 mps 718 mmHg 80%
    10:00 +5°C° 0.1 mm 1 mps 718 mmHg 77%
    11:00 +6°C° 0.1 mm 1 mps 717 mmHg 76%
    12:00 +6°C° 0.1 mm 1 mps 717 mmHg 76%
    13:00 +6°C° 0.1 mm 2 mps 717 mmHg 75%
    14:00 +6°C° 0.3 mm 1 mps 717 mmHg 80%
    15:00 +6°C° 0.3 mm 1 mps 716 mmHg 84%
    16:00 +5°C° 0.3 mm 1 mps 716 mmHg 88%
    17:00 +5°C° 0.8 mm 1 mps 716 mmHg 89%
    18:00 +3°C° 0.8 mm 2 mps 716 mmHg 89%
    19:00 +3°C° 0.8 mm 2 mps 716 mmHg 90%
    20:00 +3°C° 0.3 mm 2 mps 715 mmHg 90%
    21:00 +3°C° 0.3 mm 2 mps 715 mmHg 89%
    22:00 +3°C° 0.3 mm 2 mps 715 mmHg 89%
    23:00 +3°C° 0.3 mm 2 mps 715 mmHg 90%

    22 February, Friday

    Time Temperature Precipitation Wind Pressure Humidity
    00:00 +3°C° 0.3 mm 2 mps 714 mmHg 92%
    01:00 +3°C° 0.3 mm 2 mps 714 mmHg 93%
    02:00 +3°C° 0.6 mm 2 mps 714 mmHg 94%
    03:00 +3°C° 0.6 mm 2 mps 714 mmHg 95%
    04:00 +2°C° 0.6 mm 3 mps 713 mmHg 95%
    05:00 +2°C° 0.8 mm 3 mps 714 mmHg 95%
    06:00 +3°C° 0.8 mm 4 mps 714 mmHg 95%
    07:00 +3°C° 0.8 mm 4 mps 715 mmHg 95%
    08:00 0°C° 0.7 mm 4 mps 716 mmHg 94%
    09:00 -2°C° 0.7 mm 5 mps 716 mmHg 93%
    10:00 -4°C° 0.7 mm 5 mps 717 mmHg 92%
    11:00 -5°C° 0.2 mm 5 mps 718 mmHg 89%
    12:00 -5°C° 0.2 mm 5 mps 719 mmHg 85%
    13:00 -5°C° 0.2 mm 6 mps 720 mmHg 81%
    14:00 -5°C° 0 mm 6 mps 720 mmHg 78%
    15:00 -6°C° 0 mm 6 mps 721 mmHg 74%
    16:00 -6°C° 0 mm 6 mps 722 mmHg 71%
    17:00 -7°C° 0 mm 5 mps 722 mmHg 74%
    18:00 -7°C° 0 mm 5 mps 723 mmHg 76%
    19:00 -8°C° 0 mm 4 mps 724 mmHg 79%
    20:00 -8°C° 0 mm 3 mps 724 mmHg 79%
    21:00 -8°C° 0 mm 3 mps 724 mmHg 79%
    22:00 -7°C° 0 mm 2 mps 725 mmHg 80%
    23:00 -7°C° 0 mm 2 mps 725 mmHg 79%

    23 February, Saturday

    Time Temperature Precipitation Wind Pressure Humidity
    00:00 -7°C° 0 mm 2 mps 725 mmHg 78%
    01:00 -7°C° 0 mm 2 mps 725 mmHg 77%
    02:00 -7°C° 0 mm 2 mps 725 mmHg 76%
    03:00 -7°C° 0 mm 2 mps 725 mmHg 75%
    04:00 -8°C° 0 mm 3 mps 725 mmHg 73%
    05:00 -8°C° 0 mm 3 mps 725 mmHg 74%
    06:00 -8°C° 0 mm 3 mps 725 mmHg 75%
    07:00 -8°C° 0 mm 3 mps 725 mmHg 76%
    08:00 -7°C° 0 mm 3 mps 725 mmHg 69%
    09:00 -8°C° 0 mm 4 mps 725 mmHg 62%
    10:00 -7°C° 0 mm 4 mps 726 mmHg 56%
    11:00 -5°C° 0 mm 4 mps 726 mmHg 52%
    12:00 -4°C° 0 mm 4 mps 725 mmHg 48%
    13:00 -4°C° 0 mm 4 mps 725 mmHg 44%
    14:00 -4°C° 0 mm 3 mps 725 mmHg 45%
    15:00 -4°C° 0 mm 3 mps 725 mmHg 45%
    16:00 -5°C° 0 mm 3 mps 724 mmHg 46%
    17:00 -5°C° 0 mm 3 mps 724 mmHg 48%
    18:00 -4°C° 0 mm 2 mps 724 mmHg 51%
    19:00 -5°C° 0 mm 2 mps 724 mmHg 53%
    20:00 -5°C° 0 mm 2 mps 725 mmHg 54%
    21:00 -5°C° 0 mm 2 mps 725 mmHg 54%
    22:00 -5°C° 0 mm 2 mps 725 mmHg 55%
    23:00 -5°C° 0 mm 2 mps 724 mmHg 57%

    24 February, Sunday

    Time Temperature Precipitation Wind Pressure Humidity
    00:00 -5°C° 0 mm 2 mps 724 mmHg 59%
    01:00 -4°C° 0 mm 1 mps 724 mmHg 61%
    02:00 -4°C° 0 mm 1 mps 724 mmHg 64%
    03:00 -4°C° 0 mm 1 mps 724 mmHg 66%
    04:00 -6°C° 0 mm 1 mps 724 mmHg 69%
    05:00 -7°C° 0 mm 2 mps 724 mmHg 71%
    06:00 -7°C° 0 mm 2 mps 724 mmHg 72%
    07:00 -7°C° 0 mm 2 mps 725 mmHg 74%
    08:00 -6°C° 0 mm 2 mps 725 mmHg 67%
    09:00 -5°C° 0 mm 2 mps 725 mmHg 60%
    10:00 -4°C° 0 mm 2 mps 726 mmHg 54%
    11:00 -3°C° 0 mm 2 mps 726 mmHg 51%
    12:00 -2°C° 0 mm 2 mps 726 mmHg 49%
    13:00 -2°C° 0 mm 3 mps 726 mmHg 46%
    14:00 -2°C° 0 mm 2 mps 726 mmHg 48%
    15:00 -2°C° 0 mm 2 mps 725 mmHg 49%
    16:00 -2°C° 0 mm 2 mps 725 mmHg 51%
    17:00 -3°C° 0 mm 2 mps 725 mmHg 56%
    18:00 -4°C° 0 mm 2 mps 725 mmHg 62%
    19:00 -3°C° 0 mm 1 mps 726 mmHg 68%
    20:00 -3°C° 0 mm 1 mps 726 mmHg 69%
    21:00 -3°C° 0 mm 1 mps 726 mmHg 70%
    22:00 -4°C° 0 mm 1 mps 726 mmHg 71%
    23:00 -4°C° 0 mm 1 mps 725 mmHg 71%
    Show more